Change the Weather History Date:

Sunday, December 16, 2012

  Actual Average Record
Temperature  
Mean Temperature 71 °F -  
Max Temperature 82 °F 79 °F 86 °F (1998)
Min Temperature 60 °F 60 °F 59 °F (1997)
Cooling Degree Days 6    
Growing Degree Days 21 (Base 50)    
Moisture  
Dew Point 62 °F    
Average Humidity 73    
Maximum Humidity 94    
Minimum Humidity 37    
Precipitation  
Precipitation 0.00 in 0.24 in - ()
Sea Level Pressure  
Sea Level Pressure 30.09 in    
Wind  
Wind Speed 6 mph ()    
Max Wind Speed 13 mph    
Max Gust Speed -    
Visibility 9.2 miles    
Events Rain , Thunderstorm    
Averages and records for this station are not official NWS values.
T = Trace of Precipitation, MM = Missing Value Source: Averaged Metar Reports

Daily Weather History Graph

Daily Weather History Graph

Search for Another Location

Airport or City:

Trip Planner

Search our weather history database for the weather conditions in past years. The results will help you decide how hot, cold, wet, or windy it might be!

Date:

Astronomy

Dec. 16, 2012 Rise Set
Actual Time 5:15 AM CAT 6:27 PM CAT
Civil Twilight 4:51 AM CAT 6:51 PM CAT
Nautical Twilight 4:22 AM CAT 7:20 PM CAT
Astronomical Twilight 3:52 AM CAT 7:49 PM CAT
Moon 8:20 AM CAT (12/16) 9:23 PM CAT (12/16)
Length of Visible Light 14h 00m
Length of Day
13h 12m
Waxing Crescent, 13% of the Moon is Illuminated
Dec 16
Waxing Crescent
Dec 20
First Quarter
Dec 28
Full
Jan 5
Last Quarter
Jan 11
New

Hourly Weather History & Observations

Time (CAT) Temp. Heat Index Dew Point Humidity Pressure Visibility Wind Dir Wind Speed Gust Speed Precip Events Conditions
12:00 AM 69.8 °F - 62.6 °F 78% 30.12 in - NE 8.1 mph - N/A   Clear
1:00 AM 68.0 °F - 60.8 °F 78% 30.09 in - NE 6.9 mph - N/A   Clear
2:00 AM 68 °F - 60 °F 68%  in 19 mi NE 6.9 mph - -   Mostly Cloudy
2:00 AM 68.0 °F - 59.0 °F 73% 30.12 in - NE 6.9 mph - N/A   Clear
3:00 AM 66.2 °F - 60.8 °F 83% 30.12 in - NE 3.5 mph - N/A   Clear
4:00 AM 66.2 °F - 59.0 °F 78% 30.12 in - North 3.5 mph - N/A   Clear
5:00 AM 64.4 °F - 60.8 °F 88% 30.09 in - ENE 5.8 mph - N/A   Clear
6:00 AM 66.2 °F - 59.0 °F 78% 30.09 in - NNE 5.8 mph - N/A   Clear
7:00 AM 68.0 °F - 59.0 °F 73% 30.12 in - NE 12.7 mph - N/A   Clear
8:00 AM 69 °F - 60 °F 66%  in 19 mi ENE 11.5 mph - -   Mostly Cloudy
8:00 AM 69.8 °F - 60.8 °F 73% 30.15 in - NE 11.5 mph - N/A   Clear
9:00 AM 73.4 °F - 62.6 °F 69% 30.15 in 6.2 mi NE 8.1 mph - N/A   Mostly Cloudy
11:00 AM 78.8 °F - 62.6 °F 57% 30.12 in 6.2 mi WNW 5.8 mph - N/A   Scattered Clouds
12:00 PM 60.8 °F - 59.0 °F 94% 30.21 in - ENE 6.9 mph - N/A   Clear
1:00 PM 80.6 °F 81.8 °F 62.6 °F 54% 30.09 in 6.2 mi West 4.6 mph - N/A   Mostly Cloudy
2:00 PM 81 °F - 59 °F 37%  in 19 mi West 5.8 mph - -   Mostly Cloudy
2:00 PM 80.6 °F 81.1 °F 59.0 °F 48% 30.04 in 6.2 mi West 5.8 mph - N/A   Mostly Cloudy
3:00 PM 80.6 °F 81.8 °F 62.6 °F 54% 30.01 in 6.2 mi SE 6.9 mph - N/A Rain Light Rain Showers
4:00 PM 77.0 °F - 64.4 °F 65% 30.01 in 6.2 mi NE 11.5 mph - N/A Thunderstorm Thunderstorm
5:00 PM 73.4 °F - 62.6 °F 69% 30.01 in 6.2 mi East 6.9 mph - N/A Rain , Thunderstorm Light Thunderstorms and Rain
6:00 PM 73.4 °F - 64.4 °F 73% 30.01 in 6.2 mi North 4.6 mph - N/A   Mostly Cloudy
7:00 PM 71.6 °F - 66.2 °F 83% 30.04 in 6.2 mi SE 9.2 mph - N/A   Mostly Cloudy
8:00 PM 69 °F - 63 °F 76%  in 19 mi East 5.8 mph - -   Partly Cloudy
8:00 PM 68.0 °F - 62.6 °F 83% 30.06 in 6.2 mi East 5.8 mph - N/A   Mostly Cloudy
9:00 PM 69.8 °F - 64.4 °F 83% 30.09 in 6.2 mi West 3.5 mph - N/A Rain , Thunderstorm Light Thunderstorms and Rain
10:00 PM 66.2 °F - 64.4 °F 94% 30.09 in 6.2 mi WSW 9.2 mph - N/A Rain , Thunderstorm Light Thunderstorms and Rain
11:00 PM 68.0 °F - 62.6 °F 83% 30.09 in 6.2 mi WNW 6.9 mph - N/A   Mostly Cloudy